Вернуться в каталог

STARLINK-3688

АктивенСвязьVLEO
NORAD 52310·PAYLOAD·🇺🇸 United States

Запущен Apr 21, 2022 с Cape Canaveral Space Force Station

Loading…

Ближайшие Пролёты (ближайшие 24 часа)

TLE

СвежийSource: CelesTrak SupGP

Эпоха: Sep 14, 2026, 13:59 UTC

1 52310C 22041BB  26257.58312500  .00037263  00000+0  11983-2 0  2577
2 52310  53.1582 307.3214 0001173  79.2837  77.7002 15.31683416    17

Отслеживайте STARLINK-3688 в реальном времени с AllMySat

Download on the App Store